Location: Newark
(44.3248°N, 23.7839°E)
Time: 05:44:10
(UTC+00:00)

FO-29 - Pass Details

Date: 29 April 2024
Orbit: 801 x 1320 km, 98.6° (Epoch: 28 May)

Event Time Altitude Azimuth Distance (km) Brightness Sun altitude
Rises 22:24:12 0° 28° (NNE) 4,292 13.7 -30.8°
Reaches altitude 10° 22:28:24 10° 49° (NE) 3,349 12.7 -30.8°
Maximum altitude 22:32:49 16° 84° (E) 2,921 12.0 -30.8°
Enters shadow 22:35:46 13° 109° (ESE) 3,107 12.0 -30.7°
